Location: Willingham
(52.3167°N, 0.0667°E)
Time: 16:35:19
(UTC+00:00)

NOSS 2-1 (D) - Pass Details

Date: 19 May 2025
Orbit: 378 x 1698 km, 63.3° (Epoch: 12 June)

Event Time Altitude Azimuth Distance (km) Brightness Sun altitude
Exits shadow 22:35:40 28° 114° (ESE) 795 3.8 -15.6°
Drops below altitude 10° 22:38:00 10° 65° (ENE) 1,420 5.5 -15.7°
Sets 22:40:04 0° 53° (NE) 2,258 6.7 -15.8°
